When you browse on this site, cookies collect data to enhance your experience and personalize the content and advertising you see.
Visit our Privacy Policy to learn more. By continuing to use the site, you agree to this use of cookies and data.
  • In Romania
  • List of Countries
  • For 7 days
  • Water Temperature
  • Satellite Maps
  • Weather Map
  • Weather Widgets
  • user-avatar
    Login

    Hourly Weather Byala

    Today, 20 May, Monday

    Time Temperature Precipitation Wind Pressure Humidity
    00:00 +18°C° 0 mm 3 mps 747 mmHg 80%
    01:00 +18°C° 0 mm 3 mps 747 mmHg 81%
    02:00 +18°C° 0 mm 3 mps 746 mmHg 81%
    03:00 +17°C° 0 mm 3 mps 746 mmHg 81%
    04:00 +17°C° 0 mm 3 mps 746 mmHg 82%
    05:00 +17°C° 0 mm 3 mps 746 mmHg 82%
    06:00 +18°C° 0 mm 3 mps 746 mmHg 77%
    07:00 +20°C° 0 mm 3 mps 746 mmHg 72%
    08:00 +21°C° 0 mm 3 mps 746 mmHg 67%
    09:00 +24°C° 0 mm 3 mps 746 mmHg 62%
    10:00 +25°C° 0 mm 4 mps 746 mmHg 56%
    11:00 +27°C° 0 mm 4 mps 747 mmHg 51%
    12:00 +27°C° 0 mm 4 mps 747 mmHg 50%
    13:00 +27°C° 0 mm 4 mps 746 mmHg 50%
    14:00 +27°C° 0 mm 5 mps 746 mmHg 49%
    15:00 +27°C° 0 mm 5 mps 746 mmHg 53%
    16:00 +26°C° 0 mm 5 mps 746 mmHg 56%
    17:00 +26°C° 0 mm 5 mps 745 mmHg 60%
    18:00 +23°C° 0 mm 6 mps 746 mmHg 61%
    19:00 +21°C° 0 mm 6 mps 746 mmHg 63%
    20:00 +20°C° 0 mm 6 mps 746 mmHg 64%
    21:00 +19°C° 0 mm 5 mps 746 mmHg 65%
    22:00 +17°C° 0 mm 5 mps 747 mmHg 66%
    23:00 +18°C° 0 mm 4 mps 747 mmHg 66%

    Tomorrow, 21 May, Tuesday

    Time Temperature Precipitation Wind Pressure Humidity
    00:00 +17°C° 0 mm 4 mps 748 mmHg 69%
    01:00 +17°C° 0 mm 4 mps 748 mmHg 73%
    02:00 +16°C° 0 mm 3 mps 748 mmHg 76%
    03:00 +16°C° 0 mm 3 mps 748 mmHg 78%
    04:00 +14°C° 0 mm 3 mps 748 mmHg 81%
    05:00 +15°C° 0 mm 2 mps 748 mmHg 83%
    06:00 +17°C° 0 mm 3 mps 748 mmHg 78%
    07:00 +19°C° 0 mm 3 mps 748 mmHg 74%
    08:00 +21°C° 0 mm 3 mps 749 mmHg 69%
    09:00 +22°C° 0 mm 3 mps 749 mmHg 64%
    10:00 +25°C° 0 mm 3 mps 749 mmHg 59%
    11:00 +26°C° 0 mm 4 mps 749 mmHg 55%
    12:00 +26°C° 0 mm 4 mps 749 mmHg 53%
    13:00 +27°C° 0 mm 5 mps 748 mmHg 51%
    14:00 +27°C° 0 mm 5 mps 748 mmHg 49%
    15:00 +26°C° 0.2 mm 4 mps 748 mmHg 54%
    16:00 +25°C° 0.2 mm 3 mps 747 mmHg 59%
    17:00 +24°C° 0.2 mm 3 mps 747 mmHg 64%
    18:00 +21°C° 0.3 mm 2 mps 747 mmHg 69%
    19:00 +19°C° 0.3 mm 2 mps 748 mmHg 75%
    20:00 +18°C° 0.3 mm 2 mps 748 mmHg 81%
    21:00 +17°C° 0 mm 2 mps 748 mmHg 81%
    22:00 +17°C° 0 mm 2 mps 749 mmHg 81%
    23:00 +16°C° 0 mm 2 mps 749 mmHg 81%

    Day after tomorrow, 22 May, Wednesday

    Time Temperature Precipitation Wind Pressure Humidity
    00:00 +16°C° 0 mm 2 mps 749 mmHg 81%
    01:00 +14°C° 0 mm 3 mps 749 mmHg 80%
    02:00 +14°C° 0 mm 3 mps 749 mmHg 80%
    03:00 +14°C° 0 mm 3 mps 750 mmHg 80%
    04:00 +13°C° 0 mm 3 mps 750 mmHg 80%
    05:00 +13°C° 0 mm 3 mps 750 mmHg 81%
    06:00 +16°C° 0 mm 2 mps 750 mmHg 75%
    07:00 +18°C° 0 mm 2 mps 751 mmHg 69%
    08:00 +20°C° 0 mm 2 mps 751 mmHg 63%
    09:00 +23°C° 0 mm 2 mps 751 mmHg 58%
    10:00 +24°C° 0 mm 2 mps 751 mmHg 52%
    11:00 +25°C° 0 mm 2 mps 752 mmHg 47%
    12:00 +26°C° 0 mm 3 mps 751 mmHg 46%
    13:00 +26°C° 0 mm 3 mps 751 mmHg 45%
    14:00 +27°C° 0 mm 4 mps 751 mmHg 44%
    15:00 +25°C° 0 mm 4 mps 751 mmHg 51%
    16:00 +23°C° 0 mm 4 mps 751 mmHg 57%
    17:00 +22°C° 0 mm 4 mps 750 mmHg 63%
    18:00 +20°C° 0 mm 4 mps 750 mmHg 67%
    19:00 +19°C° 0 mm 3 mps 750 mmHg 71%
    20:00 +17°C° 0 mm 3 mps 750 mmHg 75%
    21:00 +17°C° 0 mm 2 mps 750 mmHg 77%
    22:00 +17°C° 0 mm 2 mps 750 mmHg 78%
    23:00 +18°C° 0 mm 1 mps 750 mmHg 80%

    23 May, Thursday

    Time Temperature Precipitation Wind Pressure Humidity
    00:00 +18°C° 0 mm 1 mps 750 mmHg 79%
    01:00 +18°C° 0 mm 1 mps 750 mmHg 78%
    02:00 +16°C° 0 mm 1 mps 750 mmHg 78%
    03:00 +16°C° 0 mm 1 mps 750 mmHg 79%
    04:00 +16°C° 0 mm 1 mps 750 mmHg 80%
    05:00 +16°C° 0 mm 1 mps 750 mmHg 80%
    06:00 +19°C° 0 mm 1 mps 750 mmHg 75%
    07:00 +20°C° 0 mm 1 mps 750 mmHg 69%
    08:00 +22°C° 0 mm 1 mps 750 mmHg 64%
    09:00 +24°C° 0 mm 1 mps 750 mmHg 59%
    10:00 +26°C° 0 mm 1 mps 750 mmHg 55%
    11:00 +27°C° 0 mm 1 mps 750 mmHg 50%
    12:00 +27°C° 0 mm 2 mps 749 mmHg 50%
    13:00 +27°C° 0 mm 3 mps 749 mmHg 49%
    14:00 +27°C° 0 mm 4 mps 749 mmHg 49%
    15:00 +26°C° 0 mm 3 mps 748 mmHg 52%
    16:00 +25°C° 0 mm 3 mps 748 mmHg 55%
    17:00 +24°C° 0 mm 2 mps 748 mmHg 58%
    18:00 +23°C° 0 mm 2 mps 748 mmHg 64%
    19:00 +21°C° 0 mm 1 mps 748 mmHg 70%
    20:00 +19°C° 0 mm 1 mps 748 mmHg 76%
    21:00 +19°C° 0 mm 1 mps 748 mmHg 76%
    22:00 +19°C° 0 mm 1 mps 748 mmHg 77%
    23:00 +18°C° 0 mm 1 mps 748 mmHg 77%

    24 May, Friday

    Time Temperature Precipitation Wind Pressure Humidity
    00:00 +17°C° 0 mm 2 mps 748 mmHg 81%
    01:00 +16°C° 0 mm 3 mps 747 mmHg 84%
    02:00 +15°C° 0 mm 4 mps 747 mmHg 88%
    03:00 +14°C° 0 mm 3 mps 747 mmHg 89%
    04:00 +14°C° 0 mm 3 mps 747 mmHg 90%
    05:00 +13°C° 0 mm 3 mps 747 mmHg 92%
    06:00 +15°C° 0 mm 4 mps 747 mmHg 86%
    07:00 +17°C° 0 mm 4 mps 747 mmHg 80%
    08:00 +18°C° 0 mm 4 mps 747 mmHg 74%
    09:00 +20°C° 0 mm 4 mps 747 mmHg 70%
    10:00 +21°C° 0 mm 4 mps 747 mmHg 66%
    11:00 +22°C° 0 mm 3 mps 747 mmHg 61%
    12:00 +22°C° 0 mm 3 mps 746 mmHg 60%
    13:00 +24°C° 0 mm 2 mps 746 mmHg 58%
    14:00 +24°C° 0 mm 2 mps 745 mmHg 56%
    15:00 +24°C° 0 mm 2 mps 745 mmHg 60%
    16:00 +22°C° 0 mm 3 mps 745 mmHg 63%
    17:00 +22°C° 0 mm 3 mps 744 mmHg 67%
    18:00 +20°C° 0.1 mm 2 mps 744 mmHg 72%
    19:00 +20°C° 0.1 mm 1 mps 744 mmHg 78%
    20:00 +19°C° 0.1 mm 1 mps 744 mmHg 84%
    21:00 +18°C° 0.2 mm 1 mps 744 mmHg 85%
    22:00 +18°C° 0.2 mm 1 mps 744 mmHg 86%
    23:00 +18°C° 0.2 mm 1 mps 744 mmHg 87%

    25 May, Saturday

    Time Temperature Precipitation Wind Pressure Humidity
    00:00 +16°C° 0.1 mm 1 mps 744 mmHg 88%
    01:00 +16°C° 0.1 mm 2 mps 744 mmHg 89%
    02:00 +16°C° 0.1 mm 2 mps 744 mmHg 90%
    03:00 +16°C° 0.1 mm 3 mps 744 mmHg 90%
    04:00 +16°C° 0.1 mm 3 mps 744 mmHg 90%
    05:00 +14°C° 0.1 mm 4 mps 744 mmHg 91%
    06:00 +15°C° 0 mm 4 mps 744 mmHg 87%
    07:00 +17°C° 0 mm 4 mps 745 mmHg 83%
    08:00 +18°C° 0 mm 4 mps 745 mmHg 79%
    09:00 +19°C° 0 mm 4 mps 745 mmHg 74%
    10:00 +21°C° 0 mm 4 mps 746 mmHg 69%
    11:00 +22°C° 0 mm 4 mps 746 mmHg 63%
    12:00 +24°C° 0.1 mm 3 mps 746 mmHg 60%
    13:00 +25°C° 0.1 mm 3 mps 746 mmHg 58%
    14:00 +25°C° 0.1 mm 2 mps 746 mmHg 55%
    15:00 +25°C° 0.1 mm 2 mps 746 mmHg 57%
    16:00 +25°C° 0.1 mm 3 mps 745 mmHg 59%
    17:00 +24°C° 0.1 mm 3 mps 745 mmHg 61%
    18:00 +22°C° 0 mm 3 mps 745 mmHg 68%
    19:00 +20°C° 0 mm 3 mps 745 mmHg 74%
    20:00 +18°C° 0 mm 3 mps 746 mmHg 81%
    21:00 +18°C° 0 mm 2 mps 746 mmHg 83%
    22:00 +17°C° 0 mm 2 mps 746 mmHg 85%
    23:00 +17°C° 0 mm 2 mps 746 mmHg 87%
    Show more